Location: Sternwarte ZA, Rosenfeld-Brittheim
(48.2889°N, 8.6789°E)
Time: 20:02:03
(UTC+02:00)

ISS - Pass Details

Date: 14 July 2019
Orbit: 409 x 418 km, 51.6° (Epoch: 20 July)

Event Time Altitude Azimuth Distance (km) Brightness Sun altitude
Exits shadow 03:09:09 - 281° (W) 2,069 -0.4 -16.6°
Reaches altitude 10° 03:10:37 10° 286° (WNW) 1,483 -1.1 -16.5°
Maximum altitude 03:13:50 44° 1° (N) 579 -2.6 -16.3°
Drops below altitude 10° 03:17:02 10° 75° (ENE) 1,479 -0.4 -16.1°
Sets 03:19:11 0° 82° (E) 2,339 0.5 -15.9°
